www.pogodaiklimat.ru

Погода и климат >> Архив погоды >> Россия >> Якутия >> Томпо


АРХИВ ПОГОДЫ в Томпо

Время (UTC), дата Ветер
(напр.,м/с)
 
Видим.   Явления Облачность Т
(С)
Тd
(С)
f
(%)
Тe
(С)
Тes
(С)
Комфортность P
(гПа)
Po
(гПа)
Тmin
(С)
Tmax
(С)
R
(мм)
R24
(мм)
S
(см)
21 11.02 СЗ 1 10 км слаб. снег 9/0
[Ac As Cs]
-44.2 -47.0 73 -50 -50 опасность
обморожения
1029.6 969.9 -46.1 0.0 29
00 12.02 С 1 50 км {снег} 8/0
[Ac trans Cs]
-44.6 -47.0 77 -50 -50 опасность
обморожения
1029.8 969.8
03 12.02 СЗ 1 50 км 6/0
[Cs]
-41.9 -44.4 76 -47 -46 опасность
обморожения
1028.4 969.2
06 12.02 С 1 50 км 8/0
[Ac trans Cs]
-38.5 -42.0 69 -44 -43 опасность
обморожения
1027.2 968.9
09 12.02 штиль 0 50 км 6/0
[Cs]
-40.7 -43.3 76 -41 -41 опасность
обморожения
1027.9 969.0 -38.5 0.0
12 12.02 штиль 0 20 км слаб. снег 8/0
[Cs]
-43.2 -45.6 77 -43 -43 опасность
обморожения
1029.1 969.7
15 12.02 С 1 50 км {снег} 4/0
[Cs]
-44.6 -47.0 77 -50 -50 опасность
обморожения
1029.9 969.9
18 12.02 СЗ 1 50 км {снег} 3/0
[Ci fib]
-47.4 -49.6 78 -53 -53 опасность
обморожения
1030.5 970.0
21 12.02 С 1 50 км ясно -49.3 -51.8 75 -56 -56 опасность
обморожения
1030.9 969.8 -49.4 0.2 29
00 13.02 С 1 50 км ясно -50.7 -53.1 75 -57 -57 опасность
обморожения
1031.7 970.1 -50.8
03 13.02 С 1 50 км ясно -45.4 -47.8 77 -51 -50 опасность
обморожения
1029.6 969.6
06 13.02 штиль 0 50 км 8/0
[Cs]
-40.5 -43.3 74 -41 -40 опасность
обморожения
1027.6 968.8
09 13.02 С 1 20 км слаб. снег 9/0
[Cs]
-42.1 -45.0 73 -48 -48 опасность
обморожения
1028.7 969.5 -40.5 0.0
12 13.02 С 1 20 км слаб. снег 10/0
[Cs]
-44.1 -47.0 73 -50 -50 опасность
обморожения
1029.5 969.8
15 13.02 СЗ 1 50 км {снег} 10/0
[Cs]
-45.7 -48.6 72 -52 -52 опасность
обморожения
1029.8 969.6
18 13.02 СЗ 1 50 км {снег} 8/0
[Cs]
-46.4 -48.6 78 -52 -52 опасность
обморожения
1029.5 969.3
21 13.02 С 1 50 км 4/0
[Cs]
-49.0 -51.8 72 -55 -55 опасность
обморожения
1029.6 968.7 -49.2 0.0 29
00 14.02 С 1 50 км 3/0
[Ci fib]
-49.6 -51.8 77 -56 -56 опасность
обморожения
1029.5 968.3 -49.8
03 14.02 СЗ 1 50 км 3/0
[Ci fib]
-45.6 -48.6 71 -51 -50 опасность
обморожения
1027.6 967.5
06 14.02 штиль 0 50 км ясно -39.3 -42.3 73 -39 -39 опасность
обморожения
1023.7 965.6
09 14.02 СЗ 1 50 км ясно -42.7 -45.6 73 -48 -48 опасность
обморожения
1024.8 965.6 -39.3
12 14.02 СЗ 1 50 км ясно -46.7 -49.6 72 -53 -53 опасность
обморожения
1025.8 965.6
15 14.02 С 1 50 км ясно -48.9 -51.8 71 -55 -55 опасность
обморожения
1025.9 965.1
18 14.02 С 1 50 км ясно -50.0 -53.1 70 -56 -56 опасность
обморожения
1025.3 964.3
21 14.02 С 1 50 км ясно -50.5 -53.1 74 -57 -57 опасность
обморожения
1024.6 963.4 -50.8 29
00 15.02 С 1 50 км 6/0
[Ac trans Ci fib]
-50.4 -53.1 73 -57 -56 опасность
обморожения
1023.6 962.8 -50.9
03 15.02 СЗ 1 50 км 10/0
[Ac As Cs]
-44.8 -47.8 72 -51 -50 опасность
обморожения
1020.0 960.7
06 15.02 С 1 50 км 10/0
[Ac As]
-39.9 -42.8 74 -45 -45 опасность
обморожения
1016.5 958.6
09 15.02 штиль 0 10 км слаб. снег 10/0
[Ac As Cs]
-39.1 -41.8 75 -39 -39 опасность
обморожения
1015.0 957.3 -39.1 0.0
12 15.02 СЗ 1 10 км слаб. снег 10/0
[Ac As Cs]
-38.6 -41.4 75 -44 -44 опасность
обморожения
1014.1 956.6
15 15.02 С 1 50 км {снег} 4/0
[Cs]
-41.7 -44.4 75 -47 -47 опасность
обморожения
1014.0 955.7
18 15.02 С 1 50 км {снег} 3/0
[Ci fib]
-45.2 -47.8 75 -51 -51 опасность
обморожения
1013.8 954.8
21 15.02 С 1 50 км 3/0
[Ci fib]
-46.1 -48.6 76 -52 -52 опасность
обморожения
1013.0 953.8 -46.3 0.2 29
00 16.02 С 1 50 км ясно -46.8 -49.6 73 -53 -52 опасность
обморожения
1011.8 952.4 -47.0
03 16.02 СЗ 1 50 км 3/0
[Ci fib]
-41.5 -44.4 73 -47 -45 опасность
обморожения
1008.7 950.8
06 16.02 СЗ 2 50 км ясно -35.9 -39.4 70 -44 -44 опасность
обморожения
1005.9 949.5
09 16.02 СЗ 1 50 км ясно -38.9 -41.8 74 -44 -44 опасность
обморожения
1007.2 950.0 -35.6
12 16.02 СЗ 2 50 км ясно -42.2 -45.0 74 -52 -52 опасность
обморожения
1008.6 950.7
15 16.02 СЗ 1 50 км ясно -44.0 -47.0 72 -50 -50 опасность
обморожения
1009.9 951.3
18 16.02 СЗ 1 50 км ясно -45.7 -48.6 72 -52 -52 опасность
обморожения
1011.0 951.9
21 16.02 СЗ 2 50 км 3/0
[Ci fib]
-44.6 -47.0 77 -54 -54 опасность
обморожения
1011.1 952.3 -46.0 29
00 17.02 СЗ 2 50 км 3/0
[Ci fib]
-45.4 -47.8 77 -55 -55 опасность
обморожения
1012.6 953.6
03 17.02 СЗ 3 50 км 1/0
[Ci fib]
-39.0 -41.8 75 -50 -49 опасность
обморожения
1011.4 954.0
06 17.02 СЗ 2 50 км 4/0
[Ci fib]
-34.4 -38.1 69 -43 -42 опасность
обморожения
1010.5 954.3
09 17.02 СЗ 1 50 км 8/0
[Ac trans Cs]
-35.6 -38.4 75 -40 -40 опасность
обморожения
1012.6 955.8 -34.0
12 17.02 СЗ 2 50 км 9/0
[Ac trans Cs]
-38.2 -40.9 76 -47 -47 опасность
обморожения
1014.2 956.9
15 17.02 СЗ 2 50 км 9/0
[Cs]
-38.8 -41.8 73 -48 -48 опасность
обморожения
1015.3 957.6
18 17.02 СЗ 1 50 км 9/0
[Cs]
-39.3 -42.3 73 -44 -44 опасность
обморожения
1015.8 958.1
21 17.02 СЗ 2 50 км 8/0
[Cs]
-38.8 -41.8 73 -48 -48 опасность
обморожения
1016.3 958.6 -39.6 29
00 18.02 СЗ 1 50 км 4/0
[Ci fib]
-40.9 -43.8 73 -46 -46 опасность
обморожения
1017.8 959.5 -41.1
03 18.02 СЗ 2 50 км 3/0
[Ci fib]
-35.8 -39.4 69 -44 -43 опасность
обморожения
1017.0 960.0
06 18.02 С 3 50 км ясно -31.7 -35.5 69 -42 -41 опасность
обморожения
1016.1 960.0
09 18.02 СЗ 3 50 км ясно -34.1 -37.1 74 -45 -45 опасность
обморожения
1018.1 961.4 -31.3
12 18.02 С 2 50 км ясно -38.7 -41.4 75 -48 -48 опасность
обморожения
1021.2 963.1
15 18.02 СЗ 2 50 км ясно -40.8 -43.8 73 -50 -50 опасность
обморожения
1023.1 964.6
18 18.02 С 2 50 км ясно -41.8 -44.4 76 -51 -51 опасность
обморожения
1024.6 965.7

 

Местоположение метеостанции Томпо (Якутия, Россия): широта 63.95 долгота 135.80 высота над уровнем моря 402 м.

В архиве по умолчанию представлена погода в Томпо за последнюю неделю. Архивные данные за месяц целиком и за предыдущие месяцы, начиная с января 2011 года, Вы можете получить, выбрав интересующий диапазон дат из раскрывающегося списка и нажав кнопку "Ввод!".


*Определитесь, кто Вы:
робот инопланетянин человек

Внимание! Время в таблицах - всемирное. Для получения местного времени необходимо прибавить поправку, которая равна 9 ч.

Смотрите также архив погоды в соседних городах и на ближайших метеорологических станциях:

Погода в Теплом Ключе (Якутия, Россия) (139 км)
Погода в Крест-Хальджае (Якутия, Россия) (144 км)
Погода в Иэме (Якутия, Россия) (150 км)
Погода в Верхоянском Перевозе (Якутия, Россия) (200 км)
Погода в Восточной (Якутия, Россия) (204 км)
Погода в Ытык-Кюёле (Якутия, Россия) (210 км)
Погода в Охотском Перевозе (Якутия, Россия) (232 км)
Погода в Чурапче (Якутия, Россия) (268 км)
Погода в Сеген-Кюеле (Якутия, Россия) (268 км)
Погода в Юртах (Якутия, Россия) (293 км)

Пояснения к столбцам:

Ветер - указаны скорость ветра в м/с - средняя за 10 мин, порывы в срок и между сроками (в фигурных скобках) и направление, откуда дует ветер: С - северный, СВ - северо-восточный, В - восточный, ЮВ - юго-восточный, Ю - южный, ЮЗ - юго-западный, З - западный, СЗ - северо-западный.
Видимость - горизонтальная дальность видимости в метрах или километрах. При видимости от 1 до 10 км при отсутствии осадков обычно наблюдается дымка, при ухудшении видимости до 1 км и менее - туман. В сухую погоду видимость может ухудшаться дымом, пылью или мглою.
Явления - указаны атмосферные явления, наблюдавшиеся в срок или в последний час перед сроком; фигурными скобками обозначены явления, наблюдавшиеся между сроками (за 1-3 часа до срока); квадратными скобками обозначены град или гололедные отложения с указанием их диаметра в мм.
Облачность - указаны через наклонную черту общая и нижняя облачность в баллах и высота нижней границы облаков в метрах; квадратными скобками обозначены формы облаков: Ci - перистые, Cs - перисто-слоистые, Cc - перисто-кучевые, Ac - высококучевые, As - высокослоистые, Sc - слоисто-кучевые, Ns - слоисто-дождевые, Cu - кучевые, Cb - кучево-дождевые. Подробнее классификацию облаков см. в Атласе облаков (PDF).
T - Температура воздуха - температура, измеренная на высоте 2 м над землей.
Td - Температура точки росы - температура, при понижении до которой содержащийся в воздухе водяной пар достигнет насыщения.
f - Относительная влажность воздуха - влажноcть воздуха, измеренная на высоте 2 м над землей.
Te - Эффективная температура - температура, которую ощущает одетый по сезону человек в тени. Характеристика душности погоды. При расчете учитывается влияние влажности воздуха и скорости ветра на теплоощущения человека.
Tes - Эффективная температура на солнце - температура, которую ощущает человек, с поправкой на солнечный нагрев. Характеристика знойности погоды. Зависит от высоты солнца над горизонтом, облачности и скорости ветра. Ночью, в пасмурную погоду, а также при ветре 12 м/с и более поправка равна нулю.
P - Атмосферное давление - приведенное к уровню моря атмосферное давление.
Po - Атмосферное давление - измеренное на уровне метеостанции атмосферное давление.
Tmin - Минимальная температура - минимум температуры воздуха на высоте 2 м над землей.
Tmax - Максимальная температура - максимум температуры воздуха на высоте 2 м над землей.
R - Количество осадков - Количество выпавших осадков за период времени, мм. При наведении курсора мыши на число - период времени, за который выпало указанное количество осадков.
R24 - Количество осадков - Количество выпавших осадков за 24 часа, мм.
S - Снежный покров - Высота снежного покрова, см. При наведении курсора мыши на число - состояние снежного покрова и степень покрытия местности в баллах.